Nasa Shuttle, FL

3:16 AM EDT on March 29, 2017 (GMT -0400)
Nasa Shuttle

Weather History for KTTS - October, 2012

Change the Weather History Date:

Wednesday, October 17, 2012

  Actual Average Record
Temperature  
Mean Temperature 73 °F -  
Max Temperature 82 °F 79 °F 86 °F (1998)
Min Temperature 65 °F 65 °F 53 °F (2010)
Cooling Degree Days 8    
Growing Degree Days 23 (Base 50)    
Moisture  
Dew Point 70 °F    
Average Humidity 89    
Maximum Humidity 100    
Minimum Humidity 66    
Precipitation  
Precipitation 0.25 in - - ()
Sea Level Pressure  
Sea Level Pressure 29.87 in    
Wind  
Wind Speed 2 mph (SE)    
Max Wind Speed 13 mph    
Max Gust Speed 20 mph    
Visibility 9 miles    
Events Rain , Thunderstorm    
Averages and records for this station are not official NWS values.
T = Trace of Precipitation, MM = Missing Value Source: NWS Daily Summary

Daily Weather History Graph

Daily Weather History Graph

Search for Another Location

Airport or City:

Trip Planner

Search our weather history database for the weather conditions in past years. The results will help you decide how hot, cold, wet, or windy it might be!

Date:

Astronomy

Oct. 17, 2012 Rise Set
Actual Time 7:25 AM EDT 6:50 PM EDT
Civil Twilight 7:01 AM EDT 7:14 PM EDT
Nautical Twilight 6:33 AM EDT 7:41 PM EDT
Astronomical Twilight 6:06 AM EDT 8:09 PM EDT
Moon 9:43 AM EDT (10/17) 8:40 PM EDT (10/17)
Length of Visible Light 12h 13m
Length of Day
11h 25m
Waxing Crescent, 7% of the Moon is Illuminated
Oct 17
Waxing Crescent
Oct 21
First Quarter
Oct 29
Full
Nov 6
Last Quarter
Nov 13
New

Hourly Weather History & Observations

Time (EDT) Temp. Heat Index Dew Point Humidity Pressure Visibility Wind Dir Wind Speed Gust Speed Precip Events Conditions
12:55 AM 65.7 °F - 63.1 °F 92% 29.85 in 10.0 mi Calm Calm - N/A   Clear
1:55 AM 65.3 °F - 62.8 °F 92% 29.85 in 10.0 mi Calm Calm - N/A   Clear
2:55 AM 65.3 °F - 63.3 °F 93% 29.85 in 10.0 mi Calm Calm - N/A   Clear
3:55 AM 67.8 °F - 65.7 °F 93% 29.85 in 10.0 mi Calm Calm - N/A   Overcast
4:55 AM 66.6 °F - 64.4 °F 93% 29.85 in 10.0 mi Calm Calm - N/A   Partly Cloudy
5:55 AM 66.7 °F - 65.1 °F 95% 29.85 in 10.0 mi Calm Calm - N/A   Mostly Cloudy
6:55 AM 68.4 °F - 66.0 °F 92% 29.86 in 10.0 mi Calm Calm - N/A   Overcast
7:55 AM 68.9 °F - 66.6 °F 92% 29.88 in 10.0 mi Calm Calm - N/A   Overcast
8:55 AM 73.8 °F - 71.8 °F 93% 29.89 in 10.0 mi NW 4.6 mph - N/A   Partly Cloudy
9:11 AM 75.2 °F - 71.6 °F 89% 29.90 in 10.0 mi Calm Calm - N/A   Light Drizzle
9:20 AM 75.2 °F - 71.6 °F 89% 29.90 in 10.0 mi Calm Calm - N/A   Scattered Clouds
9:55 AM 77.9 °F - 71.8 °F 81% 29.91 in 10.0 mi Variable 3.5 mph - 0.00 in   Mostly Cloudy
10:55 AM 81.9 °F 85.4 °F 69.6 °F 66% 29.91 in 10.0 mi SW 6.9 mph - N/A   Mostly Cloudy
11:55 AM 79.7 °F - 69.8 °F 72% 29.91 in 10.0 mi Calm Calm - N/A   Scattered Clouds
12:55 PM 81.7 °F 85.6 °F 70.7 °F 69% 29.90 in 10.0 mi South 3.5 mph - N/A   Mostly Cloudy
1:55 PM 79.5 °F - 72.0 °F 78% 29.87 in 10.0 mi East 5.8 mph - N/A   Partly Cloudy
2:55 PM 79.3 °F - 72.5 °F 79% 29.86 in 10.0 mi East 4.6 mph - N/A   Partly Cloudy
3:55 PM 79.5 °F - 72.5 °F 79% 29.85 in 10.0 mi ESE 8.1 mph - N/A   Scattered Clouds
4:55 PM 78.8 °F - 72.0 °F 79% 29.84 in 10.0 mi ESE 8.1 mph - N/A Thunderstorm Scattered Clouds
5:49 PM 78.8 °F - 71.6 °F 78% 29.83 in 10.0 mi ESE 9.2 mph - N/A   Light Drizzle
5:55 PM 77.5 °F - 71.1 °F 80% 29.84 in 10.0 mi ESE 8.1 mph - 0.00 in Rain Light Rain
6:03 PM 77.0 °F - 71.6 °F 83% 29.84 in 8.0 mi SE 8.1 mph - N/A Rain Rain
6:14 PM 75.2 °F - 71.6 °F 89% 29.83 in 2.0 mi SE 11.5 mph 19.6 mph N/A Rain Heavy Rain
6:15 PM 75.2 °F - 71.6 °F 89% 29.84 in 1.8 mi SE 12.7 mph 19.6 mph N/A Rain Heavy Rain
6:23 PM 75.2 °F - 71.6 °F 89% 29.84 in 2.0 mi East 5.8 mph - N/A Rain Light Rain
6:25 PM 75.2 °F - 71.6 °F 89% 29.84 in 3.0 mi East 5.8 mph - N/A Rain Light Rain
6:27 PM 75.2 °F - 71.6 °F 89% 29.84 in 5.0 mi East 4.6 mph - N/A   Overcast
6:55 PM 73.6 °F - 70.9 °F 91% 29.84 in 10.0 mi Calm Calm - 0.25 in   Scattered Clouds
7:16 PM 73.4 °F - 71.6 °F 94% 29.84 in 10.0 mi SW 4.6 mph - N/A   Mostly Cloudy
7:26 PM 73.4 °F - 71.6 °F 94% 29.85 in 10.0 mi Calm Calm - N/A   Scattered Clouds
7:32 PM 73.4 °F - 71.6 °F 94% 29.85 in 10.0 mi NNW 3.5 mph - N/A Rain Light Rain
7:37 PM 73.4 °F - 71.6 °F 94% 29.85 in 9.0 mi NW 3.5 mph - N/A   Scattered Clouds
7:55 PM 71.6 °F - 70.3 °F 96% 29.86 in 9.0 mi Calm Calm - 0.00 in   Scattered Clouds
8:55 PM 72.0 °F - 70.2 °F 94% 29.88 in 10.0 mi SSE 6.9 mph - N/A   Clear
9:55 PM 72.3 °F - 71.1 °F 96% 29.90 in 10.0 mi SSE 4.6 mph - N/A   Mostly Cloudy
10:41 PM 71.6 °F - 71.6 °F 100% 29.90 in 10.0 mi East 4.6 mph - N/A   Mostly Cloudy
10:50 PM 71.6 °F - 71.6 °F 100% 29.91 in 10.0 mi Calm Calm - N/A   Mostly Cloudy
10:51 PM 71.6 °F - 71.6 °F 100% 29.91 in 10.0 mi Calm Calm - N/A   Mostly Cloudy
10:55 PM 71.8 °F - 70.9 °F 97% 29.91 in 10.0 mi Calm Calm - N/A   Mostly Cloudy
11:10 PM 71.6 °F - 71.6 °F 100% 29.91 in 10.0 mi Calm Calm - N/A   Overcast
11:55 PM 72.1 °F - 71.6 °F 98% 29.90 in 10.0 mi SSW 4.6 mph - N/A   Mostly Cloudy